SR5NLK-1 Weather Reports


time (UTC)temp
F
wind
direction
speed
knots
gust
knots
rain 1hr
in
rain 24hr
in
rain mn
in
humidity
%
barometer
mb
20260507084228 57 202 1.7 5.2 0.00 0.00 0.00 81 1010.6
20260507083728 57 292 5.2 8.7 0.00 0.00 0.00 81 1045.9
20260507083228 57 292 8.7 8.7 0.00 0.00 0.00 81 1036.5
20260507082728 57 270 5.2 8.7 0.00 0.00 0.00 80 1024.5
20260507082228 58 292 7.0 7.0 0.00 0.00 0.00 79 997.9
20260507081728 58 315 4.3 7.8 0.00 0.00 0.00 79 1010.4
20260507081227 58 292 7.8 7.8 0.00 0.00 0.00 79 1016.5
20260507080728 59 292 3.5 6.1 0.00 0.00 0.00 78 965.7
20260507080228 59 270 4.3 7.0 0.00 0.00 0.00 78 997.8
20260507075728 59 315 7.0 7.0 0.00 0.00 0.00 78 1016.6
20260507075228 59 337 2.6 6.1 0.00 0.00 0.00 78 997.8
20260507074728 59 337 3.5 7.8 0.00 0.00 0.00 77 961.8
20260507074228 60 337 7.8 9.6 0.00 0.00 0.00 76 1007.3
20260507073927 60 315 5.2 8.7 0.00 0.00 0.00 76 1043.6
20260507073728 60 292 4.3 8.7 0.00 0.00 0.00 76 1055.4
20260507073353 60 292 2.6 8.7 0.00 0.00 0.00 76 1004.1
20260507073228 60 270 1.7 7.0 0.00 0.00 0.00 76 1061.6
20260507072728 60 292 2.6 8.7 0.00 0.00 0.00 76 1004.1
20260507072228 61 337 2.6 9.6 0.00 0.00 0.00 76 994.7
20260507071728 61 315 6.1 7.8 0.00 0.00 0.00 77 1016.3
20260507071228 61 315 7.8 8.7 0.00 0.00 0.00 77 1013.5
20260507070728 60 337 3.5 7.8 0.00 0.00 0.00 78 965.5
20260507070627 60 337 3.5 7.0 0.00 0.00 0.00 78 1013.3
20260507070228 60 292 6.1 7.0 0.00 0.00 0.00 79 1019.8
20260507065728 59 270 2.6 8.7 0.00 0.00 0.00 79 973.4
20260507065305 59 0 4.3 9.6 0.00 0.00 0.00 79 1049.1
20260507065228 59 0 4.3 9.6 0.00 0.00 0.00 79 1049.1
20260507064730 59 270 5.2 8.7 0.00 0.00 0.00 79 1046.0
20260507064228 59 292 7.8 10.4 0.00 0.00 0.00 80 1010.3
20260507063728 59 292 6.1 10.4 0.00 0.00 0.00 80 1058.5
20260507063327 59 292 8.7 10.4 0.00 0.00 0.00 79 1090.9
20260507063228 59 292 6.1 10.4 0.00 0.00 0.00 79 1001.0
20260507062729 60 292 7.8 10.4 0.00 0.00 0.00 78 1026.0
20260507062228 60 292 7.0 9.6 0.00 0.00 0.00 76 1022.8
20260507061728 60 292 4.3 7.0 0.00 0.00 0.00 76 1097.2
20260507061229 61 247 3.5 7.0 0.00 0.00 0.00 76 971.7
20260507060738 61 292 3.5 5.2 0.00 0.00 0.00 75 961.4
20260507060728 61 292 3.5 5.2 0.00 0.00 0.00 75 961.4
20260507060228 61 247 1.7 7.8 0.00 0.00 0.00 74 974.8
20260507060027 62 270 3.5 7.8 0.00 0.00 0.00 74 1013.5
20260507055729 62 270 3.5 7.0 0.00 0.00 0.00 73 1067.9
20260507055229 63 292 3.5 3.5 0.00 0.00 0.00 72 1002.7
20260507054728 64 292 3.5 6.1 0.00 0.00 0.00 71 1052.2
20260507054228 64 270 1.7 6.1 0.00 0.00 0.00 72 1046.0
20260507053728 64 270 3.5 3.5 0.00 0.00 0.00 72 1015.4
20260507053228 64 225 1.7 3.5 0.00 0.00 0.00 71 965.4
20260507052727 64 270 0.0 1.7 0.00 0.00 0.00 71 981.0
20260507052228 64 270 1.7 3.5 0.00 0.00 0.00 70 1039.7
20260507051728 64 292 2.6 2.6 0.00 0.00 0.00 69 1055.4
20260507051228 66 337 1.7 4.3 0.00 0.00 0.00 68 962.3
20260507050728 66 0 0.9 1.7 0.00 0.00 0.00 68 1010.4
20260507050228 67 270 0.9 6.1 0.00 0.00 0.00 68 1052.2
20260507045728 68 292 3.5 5.2 0.00 0.00 0.00 68 1046.0
20260507045428 68 292 3.5 5.2 0.00 0.00 0.00 69 1022.9
20260507045228 67 292 4.3 5.2 0.00 0.00 0.00 73 1055.4
20260507044729 65 270 2.6 5.2 0.00 0.00 0.00 78 1047.7
20260507044229 63 270 4.3 4.3 0.00 0.00 0.00 80 1001.0
20260507043729 62 292 3.5 3.5 0.00 0.00 0.00 82 1012.1
20260507043229 61 292 3.5 3.5 0.00 0.00 0.00 82 1036.5
20260507042729 60 292 1.7 2.6 0.00 0.00 0.00 83 1058.5
20260507042229 60 270 0.9 2.6 0.00 0.00 0.00 83 1046.0
20260507042128 60 292 0.9 2.6 0.00 0.00 0.00 83 962.3
20260507041729 60 270 0.9 1.7 0.00 0.00 0.00 83 1055.4
20260507041229 60 270 0.0 0.9 0.00 0.00 0.00 84 968.5
20260507040729 59 270 0.0 2.6 0.00 0.00 0.00 84 968.5
20260507040229 59 225 0.0 1.7 0.00 0.00 0.00 83 922.2
20260507035729 58 157 0.0 0.9 0.00 0.00 0.00 83 997.9
20260507035300 58 157 0.0 0.9 0.00 0.00 0.00 83 968.6
20260507035229 58 157 0.0 0.9 0.00 0.00 0.00 83 968.6
20260507034828 58 135 0.0 0.0 0.00 0.00 0.00 83 1061.6
20260507034729 58 135 0.0 0.0 0.00 0.00 0.00 83 971.7
20260507034229 58 225 0.0 0.0 0.00 0.00 0.00 84 982.8
20260507033729 58 112 0.0 0.0 0.00 0.00 0.00 84 1055.4
20260507033229 57 180 0.0 1.7 0.00 0.00 0.00 84 1001.0
20260507032734 52 157 0.0 1.7 0.00 0.00 0.00 83 1055.4
20260507032729 57 157 0.0 1.7 0.00 0.00 0.00 83 1055.4
20260507032301 57 180 0.9 2.6 0.00 0.00 0.00 83 1060.2
20260507032229 57 180 0.9 2.6 0.00 0.00 0.00 83 1060.2
20260507031729 57 270 1.7 3.5 0.00 0.00 0.00 83 1060.3
20260507031528 57 247 0.9 1.7 0.00 0.00 0.00 83 1012.2
20260507031229 57 225 1.7 1.7 0.00 0.00 0.00 83 1049.1
20260507030729 57 202 1.7 1.7 0.00 0.00 0.00 83 976.5
20260507030229 57 202 1.7 2.6 0.00 0.00 0.00 83 1016.5
20260507025729 57 247 0.0 2.6 0.00 0.00 0.00 83 959.2
20260507025229 57 270 0.9 2.6 0.00 0.00 0.00 83 1046.0
20260507024729 57 292 0.0 1.7 0.00 0.00 0.00 83 977.9
20260507024242 57 225 0.9 1.7 0.00 0.00 0.00 83 1013.5
20260507024228 57 225 0.9 1.7 0.00 0.00 0.00 83 1013.5
20260507023729 57 315 0.0 1.7 0.00 0.00 0.00 83 1081.5
20260507023229 57 0 0.9 1.7 0.00 0.00 0.00 83 1007.2
20260507022729 57 315 0.9 2.6 0.00 0.00 0.00 83 1010.4
20260507022229 57 270 0.0 2.6 0.00 0.00 0.00 82 1010.4
20260507021729 58 292 0.9 3.5 0.00 0.00 0.00 82 968.5
20260507021229 58 292 1.7 3.5 0.00 0.00 0.00 82 965.4
20260507020928 58 292 1.7 3.5 0.00 0.00 0.00 82 1010.4
20260507020729 58 292 1.7 3.5 0.00 0.00 0.00 81 974.8
20260507020229 58 315 1.7 2.6 0.00 0.00 0.00 81 1049.1
20260507015729 58 292 0.0 2.6 0.00 0.00 0.00 81 1061.5
20260507015445 58 0 2.6 2.6 0.00 0.00 0.00 81 1039.6
20260507015229 58 315 0.9 3.5 0.00 0.00 0.00 81 1013.5
20260507014729 58 337 0.9 3.5 0.00 0.00 0.00 81 965.4
20260507014229 58 0 2.6 2.6 0.00 0.00 0.00 81 1039.6
20260507013729 58 0 1.7 2.6 0.00 0.00 0.00 80 1097.2
20260507013628 58 315 0.9 2.6 0.00 0.00 0.00 80 1049.1
20260507013229 58 337 0.0 2.6 0.00 0.00 0.00 80 1081.5
20260507012729 58 315 1.7 4.3 0.00 0.00 0.00 80 1013.5
20260507012229 58 292 2.6 5.2 0.00 0.00 0.00 80 1004.1
20260507011729 58 315 2.6 5.2 0.00 0.00 0.00 80 1054.0
20260507011229 58 315 2.6 3.5 0.00 0.00 0.00 80 1013.5
20260507010729 58 270 2.6 6.1 0.00 0.00 0.00 79 1068.9
20260507010328 58 292 3.5 3.5 0.00 0.00 0.00 79 988.3
20260507010229 58 292 1.7 3.5 0.00 0.00 0.00 79 1076.9
20260507005729 58 22 1.7 5.2 0.00 0.00 0.00 79 965.4
20260507005229 59 315 5.2 5.2 0.00 0.00 0.00 78 971.6
20260507004729 59 270 2.6 7.8 0.00 0.00 0.00 78 1045.9
20260507004229 59 292 7.8 10.4 0.00 0.00 0.00 78 1058.5
20260507003729 59 22 2.6 9.6 0.00 0.00 0.00 78 1010.4
20260507003229 59 315 4.3 7.8 0.00 0.00 0.00 77 888.0
20260507003028 59 292 3.5 7.8 0.00 0.00 0.00 77 962.3
20260507002729 60 315 2.6 10.4 0.00 0.00 0.00 76 1058.5
20260507002229 60 315 7.0 12.2 0.00 0.00 0.00 75 990.1
20260507001729 60 292 2.6 8.7 0.00 0.00 0.00 74 1001.0
20260507001229 61 292 2.6 13.9 0.00 0.00 0.00 72 1042.8
20260507000730 62 315 7.0 10.4 0.00 0.00 0.00 70 1055.3
20260507000229 63 270 2.6 17.4 0.00 0.00 0.00 69 926.7
20260506235728 63 270 10.4 15.6 0.00 0.00 0.00 68 968.6
20260506235229 63 270 2.6 7.0 0.00 0.00 0.00 67 1046.0
20260506234729 62 270 7.0 31.3 0.00 0.00 0.00 67 1024.2
20260506234229 62 270 20.9 20.9 0.00 0.00 0.00 67 1022.8
20260506233729 62 270 6.1 13.9 0.00 0.00 0.00 66 1001.0
20260506233229 62 180 0.9 0.9 0.00 0.00 0.00 66 1052.2
20260506232729 62 157 0.0 0.0 0.00 0.00 0.00 66 1007.3
20260506232428 62 112 0.0 0.9 0.00 0.00 0.00 66 994.7
20260506232229 62 112 0.0 1.7 0.00 0.00 0.00 66 977.9
20260506231729 62 112 0.0 1.7 0.00 0.00 0.00 66 1001.0
20260506231229 62 112 0.9 1.7 0.00 0.00 0.00 66 1039.7
20260506230729 62 112 0.9 1.7 0.00 0.00 0.00 66 1052.2
20260506230229 62 135 0.9 0.9 0.00 0.00 0.00 66 1090.9
20260506225729 62 112 1.7 2.6 0.00 0.00 0.00 66 1045.9
20260506225229 62 135 0.0 3.5 0.00 0.00 0.00 66 952.9
20260506225128 62 135 0.0 3.5 0.00 0.00 0.00 66 1007.3
20260506224729 62 112 0.0 3.5 0.00 0.00 0.00 66 1050.8
20260506224229 62 112 1.7 3.5 0.00 0.00 0.00 66 959.2
20260506223729 62 112 1.7 3.5 0.00 0.00 0.00 66 1010.3
20260506223229 62 135 1.7 3.5 0.00 0.00 0.00 66 1049.1
20260506222730 62 135 1.7 2.6 0.00 0.00 0.00 66 1019.8
20260506222229 62 112 0.9 3.5 0.00 0.00 0.00 66 1097.2
20260506221828 62 135 2.6 2.6 0.00 0.00 0.00 66 1019.9
20260506221729 62 112 2.6 2.6 0.00 0.00 0.00 66 1049.1
20260506221229 61 135 1.7 1.7 0.00 0.00 0.00 66 1045.9
20260506220729 61 112 0.0 1.7 0.00 0.00 0.00 66 1052.2
20260506220229 61 157 0.0 3.5 0.00 0.00 0.00 66 1007.3
20260506215729 61 112 1.7 2.6 0.00 0.00 0.00 66 1046.0
20260506215229 61 112 0.9 0.9 0.00 0.00 0.00 66 1013.5
20260506214729 61 112 0.0 0.0 0.00 0.00 0.00 66 1039.7
20260506214528 61 135 0.0 0.0 0.00 0.00 0.00 65 1058.5
20260506214229 61 135 0.0 0.9 0.00 0.00 0.00 65 984.1
20260506213729 61 112 0.0 0.0 0.00 0.00 0.00 65 1013.5
20260506213229 61 45 0.0 0.0 0.00 0.00 0.00 64 962.3
20260506212729 61 45 0.0 0.0 0.00 0.00 0.00 64 1016.6
20260506212229 62 112 0.0 0.0 0.00 0.00 0.00 64 1100.3
20260506211729 62 112 0.0 0.9 0.00 0.00 0.00 63 1052.1
20260506211228 62 135 0.0 0.0 0.00 0.00 0.00 63 1016.6
20260506210729 62 112 0.0 1.7 0.00 0.00 0.00 63 1070.9
20260506210229 62 90 0.0 1.7 0.00 0.00 0.00 63 967.4
20260506205729 62 112 1.7 2.6 0.00 0.00 0.00 63 1055.4
20260506205229 63 135 2.6 2.6 0.00 0.00 0.00 62 1094.0
20260506205214 63 112 0.0 1.7 0.00 0.00 0.00 61 1045.9
20260506204729 63 112 0.9 2.6 0.00 0.00 0.00 62 971.7
20260506204229 63 112 0.0 1.7 0.00 0.00 0.00 61 1045.9
20260506203928 63 112 0.9 1.7 0.00 0.00 0.00 61 1049.1
20260506203729 63 135 1.7 1.7 0.00 0.00 0.00 61 1001.0
20260506203229 64 112 0.0 0.0 0.00 0.00 0.00 60 1010.4
20260506202729 64 135 0.0 1.7 0.00 0.00 0.00 60 1061.6
20260506202229 64 112 0.9 1.7 0.00 0.00 0.00 60 1055.4
20260506201729 64 90 0.0 1.7 0.00 0.00 0.00 59 1026.0
20260506201229 64 157 0.0 0.9 0.00 0.00 0.00 59 1095.8
20260506200729 65 112 0.0 0.9 0.00 0.00 0.00 59 1087.8
20260506200628 65 112 0.0 0.9 0.00 0.00 0.00 59 968.6
20260506200229 65 135 0.0 1.7 0.00 0.00 0.00 59 1025.9
20260506195729 65 112 0.0 0.9 0.00 0.00 0.00 58 1090.9
20260506195229 65 135 0.0 1.7 0.00 0.00 0.00 58 968.6
20260506194729 65 90 0.9 1.7 0.00 0.00 0.00 57 1052.2
20260506194230 65 112 1.7 1.7 0.00 0.00 0.00 57 968.6
20260506193729 66 135 0.0 0.0 0.00 0.00 0.00 56 956.0
20260506193328 66 112 0.0 0.0 0.00 0.00 0.00 56 1062.5
20260506193230 66 112 0.0 0.0 0.00 0.00 0.00 56 1052.1
20260506192729 66 112 0.0 0.0 0.00 0.00 0.00 55 1007.3
20260506192229 66 135 0.0 0.9 0.00 0.00 0.00 55 964.0
20260506191730 66 112 0.0 1.7 0.00 0.00 0.00 55 1102.0
20260506191229 66 90 1.7 1.7 0.00 0.00 0.00 54 1052.2
20260506190730 67 112 0.0 0.9 0.00 0.00 0.00 54 1042.8
20260506190230 67 112 0.0 0.0 0.00 0.00 0.00 53 968.6
20260506190029 67 135 0.0 0.0 0.00 0.00 0.00 53 1046.0
20260506185730 67 135 0.0 1.7 0.00 0.00 0.00 53 1046.0
20260506185231 68 135 1.7 1.7 0.00 0.00 0.00 52 1109.7
20260506184730 68 90 0.0 1.7 0.00 0.00 0.00 51 1007.3
20260506184230 68 112 1.7 1.7 0.00 0.00 0.00 51 1090.9
20260506183730 69 22 0.0 0.9 0.00 0.00 0.00 50 1042.8
20260506183230 69 337 0.0 1.7 0.00 0.00 0.00 50 1094.1
20260506182729 69 315 0.0 1.7 0.00 0.00 0.00 50 968.5
20260506182230 70 337 1.7 1.7 0.00 0.00 0.00 49 1087.8
20260506181730 70 315 0.0 1.7 0.00 0.00 0.00 48 965.4
20260506181230 71 292 0.0 1.7 0.00 0.00 0.00 48 1095.2
20260506180730 71 270 0.0 2.6 0.00 0.00 0.00 48 1097.2
20260506180230 72 315 2.6 4.3 0.00 0.00 0.00 47 1002.2
20260506175730 72 315 2.6 4.3 0.00 0.00 0.00 47 1013.1
20260506175429 73 315 3.5 4.3 0.00 0.00 0.00 47 997.8
20260506175230 73 315 4.3 5.2 0.00 0.00 0.00 47 1052.6
20260506174730 73 315 5.2 7.0 0.00 0.00 0.00 47 1039.7
20260506174230 73 292 2.6 6.1 0.00 0.00 0.00 46 1097.2
20260506173730 73 337 4.3 6.1 0.00 0.00 0.00 46 1049.1
20260506173230 74 292 3.5 5.2 0.00 0.00 0.00 46 1078.2
20260506172730 74 315 5.2 6.1 0.00 0.00 0.00 46 1001.0
20260506172230 74 292 6.1 6.1 0.00 0.00 0.00 46 997.9
20260506172129 74 292 4.3 7.0 0.00 0.00 0.00 46 1100.3
20260506171730 74 247 2.6 7.0 0.00 0.00 0.00 46 1090.9
20260506171230 74 292 2.6 7.0 0.00 0.00 0.00 46 1019.7
20260506170730 74 292 4.3 7.0 0.00 0.00 0.00 46 1079.2
20260506170230 74 315 7.0 7.0 0.00 0.00 0.00 46 920.5
20260506165730 74 270 1.7 8.7 0.00 0.00 0.00 45 1013.5
20260506165230 75 315 8.7 8.7 0.00 0.00 0.00 45 929.9
20260506164829 75 315 6.1 10.4 0.00 0.00 0.00 44 1016.5
20260506164730 75 292 10.4 10.4 0.00 0.00 0.00 44 1049.1
20260506164230 76 292 6.1 9.6 0.00 0.00 0.00 44 1007.2
20260506163730 76 270 5.2 7.8 0.00 0.00 0.00 43 1005.5
20260506163230 77 315 7.8 7.8 0.00 0.00 0.00 42 1019.8
20260506162730 77 270 2.6 13.0 0.00 0.00 0.00 42 965.4
20260506162230 77 270 5.2 11.3 0.00 0.00 0.00 42 971.7
20260506161730 78 292 5.2 8.7 0.00 0.00 0.00 42 923.6
20260506161529 78 270 4.3 7.8 0.00 0.00 0.00 42 929.8
20260506161230 77 0 1.7 9.6 0.00 0.00 0.00 42 952.2
20260506160730 77 0 3.5 9.6 0.00 0.00 0.00 42 1013.5
20260506160230 77 292 2.6 12.2 0.00 0.00 0.00 41 998.5
20260506155730 78 292 7.8 10.4 0.00 0.00 0.00 41 1001.0
20260506155230 78 292 2.6 5.2 0.00 0.00 0.00 41 1052.2
20260506154730 78 270 3.5 8.7 0.00 0.00 0.00 41 924.8
20260506154237 77 270 6.1 12.2 0.00 0.00 0.00 1046.0
20260506154229 77 270 6.1 12.2 0.00 0.00 0.00 42 1046.0
20260506153730 77 270 3.5 8.7 0.00 0.00 0.00 41 1039.6
20260506153230 77 270 2.6 8.7 0.00 0.00 0.00 41 1064.7
20260506152730 78 247 2.6 12.2 0.00 0.00 0.00 40 1049.1
20260506152230 79 247 6.1 11.3 0.00 0.00 0.00 39 1015.2
20260506151730 79 270 10.4 10.4 0.00 0.00 0.00 39 1046.0
20260506151230 79 270 5.2 12.2 0.00 0.00 0.00 38 1052.2
20260506150929 80 315 5.2 12.2 0.00 0.00 0.00 38 1042.8
20260506150730 80 270 6.1 11.3 0.00 0.00 0.00 37 1007.3
20260506150230 81 247 9.6 10.4 0.00 0.00 0.00 37 1030.3
20260506145730 82 270 7.0 7.0 0.00 0.00 0.00 36 1010.4
20260506145230 82 270 1.7 7.8 0.00 0.00 0.00 36 974.8
20260506144730 83 225 6.1 12.2 0.00 0.00 0.00 35 933.7
20260506144230 84 270 7.8 10.4 0.00 0.00 0.00 35 959.7
20260506143730 83 202 7.0 8.7 0.00 0.00 0.00 35 977.3
20260506143629 83 202 5.2 10.4 0.00 0.00 0.00 35 1036.6
20260506143230 83 270 6.1 11.3 0.00 0.00 0.00 35 1014.3
20260506142730 82 202 10.4 13.9 0.00 0.00 0.00 36 932.8
20260506142230 81 202 12.2 14.8 0.00 0.00 0.00 36 1094.1
20260506141730 82 202 7.8 16.5 0.00 0.00 0.00 35 1006.6
20260506141230 82 202 8.7 14.8 0.00 0.00 0.00 35 914.2
20260506140731 84 202 10.4 15.6 0.00 0.00 0.00 34 1023.3
20260506140329 84 270 13.0 16.5 0.00 0.00 0.00 34 962.3
20260506140230 84 270 9.6 16.5 0.00 0.00 0.00 34 1016.7
20260506135730 85 157 6.1 11.3 0.00 0.00 0.00 34 957.5
20260506135230 84 270 3.5 10.4 0.00 0.00 0.00 34 1055.4
20260506134730 84 202 10.4 14.8 0.00 0.00 0.00 35 913.3
20260506134230 83 270 5.2 12.2 0.00 0.00 0.00 35 1054.6
20260506133730 82 202 10.4 15.6 0.00 0.00 0.00 36 994.7
20260506133230 82 225 6.1 13.9 0.00 0.00 0.00 36 1041.8
20260506133029 82 270 10.4 13.0 0.00 0.00 0.00 36 1022.6
20260506132730 82 247 10.4 15.6 0.00 0.00 0.00 35 1013.1
20260506132230 82 225 7.8 15.6 0.00 0.00 0.00 35 1016.6
20260506131730 83 180 10.4 10.4 0.00 0.00 0.00 35 1059.3
20260506131230 82 247 3.5 14.8 0.00 0.00 0.00 35 962.0
20260506130730 82 270 5.2 12.2 0.00 0.00 0.00 35 1015.2
20260506130230 83 247 3.5 14.8 0.00 0.00 0.00 35 973.7
20260506125729 83 180 9.6 13.9 0.00 0.00 0.00 35 1042.8
20260506125230 82 225 1.7 16.5 0.00 0.00 0.00 35 1052.2
20260506124730 82 247 5.2 11.3 0.00 0.00 0.00 35 991.6
20260506124230 82 202 10.4 14.8 0.00 0.00 0.00 35 1044.4
20260506123730 82 247 6.1 10.4 0.00 0.00 0.00 35 1034.8
20260506123230 82 202 7.0 14.8 0.00 0.00 0.00 35 1016.4
20260506122730 82 247 7.0 9.6 0.00 0.00 0.00 35 959.6
20260506122429 82 202 7.8 13.9 0.00 0.00 0.00 35 1000.6
20260506122231 83 225 10.4 13.9 0.00 0.00 0.00 34 1039.7
20260506121730 83 202 4.3 13.0 0.00 0.00 0.00 34 1033.7
20260506121230 83 292 7.0 10.4 0.00 0.00 0.00 34 1028.3
20260506120730 83 202 7.8 12.2 0.00 0.00 0.00 34 1010.4
20260506120230 84 270 8.7 13.0 0.00 0.00 0.00 34 1049.1
20260506115730 84 247 5.2 16.5 0.00 0.00 0.00 33 1016.7
20260506115230 85 202 8.7 15.6 0.00 0.00 0.00 33 985.3
20260506115129 85 202 6.1 15.6 0.00 0.00 0.00 33 1075.2
20260506114730 85 202 1.7 13.0 0.00 0.00 0.00 33 971.1
20260506114230 84 225 3.5 14.8 0.00 0.00 0.00 34 1041.0
20260506113730 83 270 5.2 9.6 0.00 0.00 0.00 34 1042.8
20260506113230 83 225 6.1 15.6 0.00 0.00 0.00 33 1046.0
20260506112730 84 202 10.4 17.4 0.00 0.00 0.00 33 1004.1
20260506112230 84 157 8.7 13.0 0.00 0.00 0.00 33 1033.4
20260506111829 84 202 5.2 13.9 0.00 0.00 0.00 33 1069.5
20260506111730 84 135 2.6 13.9 0.00 0.00 0.00 33 969.8
20260506111230 84 157 6.1 15.6 0.00 0.00 0.00 33 1074.0
20260506110731 83 225 8.7 17.4 0.00 0.00 0.00 33 1042.8
20260506110230 84 225 8.7 13.9 0.00 0.00 0.00 33 967.6
20260506105730 84 202 5.2 15.6 0.00 0.00 0.00 32 1078.2
20260506105230 84 202 11.3 17.4 0.00 0.00 0.00 32 1042.8
20260506104730 85 202 11.3 13.0 0.00 0.00 0.00 32 965.4
20260506104529 85 247 7.0 13.0 0.00 0.00 0.00 32 976.7
20260506104230 85 270 7.0 8.7 0.00 0.00 0.00 31 1054.3
20260506103730 86 157 8.7 13.9 0.00 0.00 0.00 30 1039.7
20260506103230 86 180 2.6 11.3 0.00 0.00 0.00 30 1046.3
20260506102730 85 180 10.4 15.6 0.00 0.00 0.00 31 1047.7
20260506102230 85 247 5.2 12.2 0.00 0.00 0.00 31 921.5
20260506101730 84 135 7.0 9.6 0.00 0.00 0.00 31 1055.4
20260506101229 84 135 9.6 10.4 0.00 0.00 0.00 30 1051.4
20260506100730 84 225 6.1 13.9 0.00 0.00 0.00 30 972.3
20260506100230 84 157 3.5 11.3 0.00 0.00 0.00 30 1057.5
20260506095730 84 112 0.0 16.5 0.00 0.00 0.00 30 1042.8
20260506095230 84 225 7.8 10.4 0.00 0.00 0.00 30 1013.5
20260506094730 84 247 8.7 9.6 0.00 0.00 0.00 30 1083.7
20260506094230 84 202 8.7 10.4 0.00 0.00 0.00 30 1071.9
20260506093930 84 180 7.0 13.9 0.00 0.00 0.00 29 1039.7
20260506093730 84 202 9.6 13.9 0.00 0.00 0.00 29 1075.2
20260506093230 84 202 6.1 8.7 0.00 0.00 0.00 29 1010.0
20260506092730 85 225 3.5 7.0 0.00 0.00 0.00 29 968.7
20260506092230 85 157 1.7 7.0 0.00 0.00 0.00 29 991.6
20260506091731 86 180 1.7 10.4 0.00 0.00 0.00 28 1053.1
20260506091231 87 202 4.3 10.4 0.00 0.00 0.00 28 1004.5
20260506090731 88 225 5.2 10.4 0.00 0.00 0.00 28 1044.9
20260506090630 88 157 4.3 10.4 0.00 0.00 0.00 28 1046.1
20260506090231 88 135 0.0 7.0 0.00 0.00 0.00 28 1049.1
20260506085731 88 135 6.1 9.6 0.00 0.00 0.00 28 973.8
20260506085231 88 157 5.2 10.4 0.00 0.00 0.00 28 1034.5
20260506084731 88 225 5.2 7.8 0.00 0.00 0.00 29 1042.8